Weather in Lesnyye Polyany

Russia / Kirov Oblast     59°00′04″N   52°25′00″E
temp.,
°C
wind,
m/s
gust,
m/s
humid.,
%
clouds,
%
prec.,
mm/h
press.,
hPa
HPBL,
m
19 september, sun
sun1900:00+2nw51082100 0.0 1018971
03:00+2nw4986100 0.1 1019854
06:00+1nw4987100 0.0 1020840
09:00+3nnw587297 0.1 10211274
12:00+4nnw4761100 0.0 10221416
15:00+4nw4865100 0.1 10231395
18:00+3nnw487299 0.0 1024727
21:00+2nnw3876100 0.0 1025669
20 september, mon
mon2000:00+2nw3783100 0.0 1026303
03:000nnw38955 0.0 1027338
06:00−2nnw279719 0.0 1028216
09:00+4nne357197 0.0 1029905
12:00+4nne3468100 0.0 1030990
15:00+5nne2363100 0.0 10301094
18:00+3ne2371100 0.0 103190
21:00+1e22865 0.0 103114
21 september, tue
tue2100:00−1e11925 0.0 103210
03:00−2ene11945 0.0 103210
06:00−1ne11915 0.0 103226
09:00+5ne23635 0.0 1031576
12:00+9ne22515 0.0 1029951
15:00+9ne22522 0.0 10281005
18:00+3ne22825 0.0 102834
21:00+1e239126 0.0 102846
22 september, wed
wed2200:00−1e22935 0.0 102815
03:00−1ene22935 0.0 102824
06:000ene23895 0.0 102975
09:00+8e24639 0.0 1028451
12:00+11ene34565 0.0 1028958
15:00+11ene34615 0.0 1027906
18:00+5ene22915 0.0 102832
21:00+3e24957 0.0 102983
23 september, thu
thu2300:00+3ese22967 0.0 102933
03:00+2se22965 0.0 102933
06:00+2se25962 0.0 1029100
09:00+8se35690 0.0 1028481
12:00+12sse34552 0.0 1027889
15:00+13sse345998 0.0 1027909
18:00+9se277888 0.0 1027187
21:00+8se3977100 0.0 1026264